| time (UTC) | temp F | wind direction | speed MPH | gust MPH | rain 1hr in | rain 24hr in | rain mn in | humidity % | barometer mb |
| 20260905190400 | 65 | 265 | 0.0 | 1.0 | 0.00 | 0.00 | 0.00 | 54 | 1025.7 |
| 20260905185900 | 65 | 258 | 0.0 | 1.0 | 0.00 | 0.00 | 0.00 | 53 | 1025.4 |
| 20260905185359 | 66 | 261 | 1.0 | 2.0 | 0.00 | 0.00 | 0.00 | 53 | 1025.5 |
| 20260905184913 | 66 | 276 | 1.0 | 1.0 | 0.00 | 0.00 | 0.00 | 51 | 1025.3 |
| 20260905184403 | 67 | 259 | 0.0 | 1.0 | 0.00 | 0.00 | 0.00 | 51 | 1025.4 |
| 20260905183900 | 67 | 260 | 1.0 | 2.0 | 0.00 | 0.00 | 0.00 | 50 | 1025.2 |
| 20260905183415 | 68 | 259 | 1.0 | 2.0 | 0.00 | 0.00 | 0.00 | 50 | 1025.3 |
| 20260905182905 | 68 | 266 | 2.0 | 2.0 | 0.00 | 0.00 | 0.00 | 48 | 1025.4 |
| 20260905182404 | 69 | 261 | 2.0 | 2.0 | 0.00 | 0.00 | 0.00 | 46 | 1025.3 |
| 20260905181903 | 69 | 258 | 1.0 | 2.0 | 0.00 | 0.00 | 0.00 | 46 | 1025.5 |
| 20260905181402 | 70 | 264 | 1.0 | 2.0 | 0.00 | 0.00 | 0.00 | 45 | 1025.3 |
| 20260905180917 | 70 | 268 | 2.0 | 2.0 | 0.00 | 0.00 | 0.00 | 44 | 1025.3 |
| 20260905180407 | 70 | 262 | 2.0 | 3.0 | 0.00 | 0.00 | 0.00 | 43 | 1025.2 |
| 20260905175907 | 71 | 256 | 2.0 | 2.0 | 0.00 | 0.00 | 0.00 | 43 | 1025.5 |
| 20260905174856 | 72 | 255 | 3.0 | 4.0 | 0.00 | 0.00 | 0.00 | 41 | 1025.3 |
| 20260905174410 | 72 | 248 | 2.0 | 3.0 | 0.00 | 0.00 | 0.00 | 38 | 1025.2 |
| 20260905173908 | 74 | 229 | 4.0 | 4.0 | 0.00 | 0.00 | 0.00 | 36 | 1025.4 |
| 20260905173358 | 75 | 228 | 2.0 | 3.0 | 0.00 | 0.00 | 0.00 | 35 | 1025.3 |
| 20260905172857 | 76 | 230 | 2.0 | 3.0 | 0.00 | 0.00 | 0.00 | 34 | 1025.2 |
| 20260905172412 | 76 | 232 | 2.0 | 3.0 | 0.00 | 0.00 | 0.00 | 34 | 1025.3 |
| 20260905171902 | 76 | 243 | 2.0 | 4.0 | 0.00 | 0.00 | 0.00 | 33 | 1025.5 |
| 20260905170901 | 77 | 222 | 2.0 | 3.0 | 0.00 | 0.00 | 0.00 | 33 | 1025.6 |
| 20260905170401 | 77 | 251 | 1.0 | 2.0 | 0.00 | 0.00 | 0.00 | 33 | 1025.5 |
| 20260905165900 | 77 | 244 | 2.0 | 2.0 | 0.00 | 0.00 | 0.00 | 33 | 1025.5 |
| 20260905165414 | 78 | 255 | 2.0 | 3.0 | 0.00 | 0.00 | 0.00 | 33 | 1025.5 |
| 20260905164859 | 78 | 233 | 3.0 | 4.0 | 0.00 | 0.00 | 0.00 | 32 | 1025.5 |
| 20260905164358 | 78 | 241 | 2.0 | 2.0 | 0.00 | 0.00 | 0.00 | 33 | 1025.4 |
| 20260905163858 | 77 | 249 | 1.0 | 2.0 | 0.00 | 0.00 | 0.00 | 32 | 1025.4 |
| 20260905162858 | 78 | 245 | 4.0 | 7.0 | 0.00 | 0.00 | 0.00 | 32 | 1025.5 |
| 20260905162357 | 78 | 230 | 3.0 | 4.0 | 0.00 | 0.00 | 0.00 | 33 | 1025.4 |
| 20260905161857 | 78 | 232 | 2.0 | 3.0 | 0.00 | 0.00 | 0.00 | 32 | 1025.6 |
| 20260905161357 | 78 | 228 | 2.0 | 4.0 | 0.00 | 0.00 | 0.00 | 33 | 1025.7 |
| 20260905160856 | 78 | 233 | 2.0 | 3.0 | 0.00 | 0.00 | 0.00 | 33 | 1025.5 |
| 20260905160356 | 78 | 230 | 4.0 | 5.0 | 0.00 | 0.00 | 0.00 | 32 | 1025.6 |
| 20260905155856 | 79 | 233 | 4.0 | 7.0 | 0.00 | 0.00 | 0.00 | 33 | 1025.7 |
| 20260905155355 | 79 | 233 | 2.0 | 3.0 | 0.00 | 0.00 | 0.00 | 32 | 1025.5 |
| 20260905154854 | 79 | 242 | 2.0 | 3.0 | 0.00 | 0.00 | 0.00 | 32 | 1025.5 |
| 20260905154409 | 80 | 240 | 2.0 | 4.0 | 0.00 | 0.00 | 0.00 | 31 | 1025.5 |
| 20260905153908 | 81 | 193 | 3.0 | 5.0 | 0.00 | 0.00 | 0.00 | 31 | 1025.4 |
| 20260905153413 | 80 | 296 | 0.0 | 2.0 | 0.00 | 0.00 | 0.00 | 32 | 1025.5 |
| 20260905152902 | 79 | 300 | 2.0 | 4.0 | 0.00 | 0.00 | 0.00 | 31 | 1025.5 |
| 20260905152402 | 78 | 308 | 2.0 | 3.0 | 0.00 | 0.00 | 0.00 | 32 | 1025.4 |
| 20260905151917 | 77 | 316 | 4.0 | 6.0 | 0.00 | 0.00 | 0.00 | 31 | 1025.6 |
| 20260905151406 | 77 | 304 | 3.0 | 4.0 | 0.00 | 0.00 | 0.00 | 31 | 1025.5 |
| 20260905150905 | 78 | 285 | 6.0 | 9.0 | 0.00 | 0.00 | 0.00 | 31 | 1025.5 |
| 20260905150405 | 78 | 308 | 2.0 | 4.0 | 0.00 | 0.00 | 0.00 | 31 | 1025.5 |
| 20260905145904 | 78 | 295 | 2.0 | 3.0 | 0.00 | 0.00 | 0.00 | 32 | 1025.5 |
| 20260905145404 | 77 | 293 | 4.0 | 6.0 | 0.00 | 0.00 | 0.00 | 32 | 1025.6 |
| 20260905144908 | 77 | 250 | 5.0 | 8.0 | 0.00 | 0.00 | 0.00 | 32 | 1025.6 |
| 20260905144408 | 77 | 300 | 4.0 | 5.0 | 0.00 | 0.00 | 0.00 | 33 | 1025.5 |
| 20260905143907 | 77 | 200 | 3.0 | 4.0 | 0.00 | 0.00 | 0.00 | 32 | 1025.8 |
| 20260905143357 | 77 | 251 | 2.0 | 4.0 | 0.00 | 0.00 | 0.00 | 33 | 1025.5 |
| 20260905142856 | 77 | 282 | 5.0 | 8.0 | 0.00 | 0.00 | 0.00 | 33 | 1025.7 |
| 20260905142356 | 78 | 243 | 6.0 | 7.0 | 0.00 | 0.00 | 0.00 | 33 | 1025.4 |
| 20260905141856 | 77 | 256 | 3.0 | 4.0 | 0.00 | 0.00 | 0.00 | 33 | 1025.4 |
| 20260905141355 | 77 | 279 | 4.0 | 4.0 | 0.00 | 0.00 | 0.00 | 33 | 1025.4 |
| 20260905140855 | 76 | 319 | 4.0 | 6.0 | 0.00 | 0.00 | 0.00 | 34 | 1025.4 |
| 20260905140355 | 75 | 254 | 3.0 | 6.0 | 0.00 | 0.00 | 0.00 | 36 | 1025.4 |
| 20260905135354 | 76 | 184 | 3.0 | 5.0 | 0.00 | 0.00 | 0.00 | 33 | 1025.6 |
| 20260905134854 | 77 | 153 | 2.0 | 3.0 | 0.00 | 0.00 | 0.00 | 33 | 1025.5 |
| 20260905134354 | 76 | 168 | 2.0 | 4.0 | 0.00 | 0.00 | 0.00 | 34 | 1025.5 |
| 20260905133854 | 77 | 186 | 5.0 | 7.0 | 0.00 | 0.00 | 0.00 | 33 | 1025.5 |
| 20260905133354 | 76 | 216 | 2.0 | 3.0 | 0.00 | 0.00 | 0.00 | 34 | 1025.5 |
| 20260905132853 | 76 | 249 | 3.0 | 4.0 | 0.00 | 0.00 | 0.00 | 35 | 1025.4 |
| 20260905131908 | 75 | 246 | 1.0 | 2.0 | 0.00 | 0.00 | 0.00 | 35 | 1025.4 |
| 20260905131407 | 76 | 248 | 3.0 | 4.0 | 0.00 | 0.00 | 0.00 | 35 | 1025.4 |
| 20260905130906 | 76 | 237 | 4.0 | 7.0 | 0.00 | 0.00 | 0.00 | 35 | 1025.4 |
| 20260905130421 | 76 | 238 | 3.0 | 4.0 | 0.00 | 0.00 | 0.00 | 35 | 1025.3 |
| 20260905125910 | 75 | 231 | 3.0 | 5.0 | 0.00 | 0.00 | 0.00 | 36 | 1025.2 |
| 20260905125410 | 75 | 252 | 4.0 | 4.0 | 0.00 | 0.00 | 0.00 | 35 | 1025.1 |
| 20260905124909 | 75 | 229 | 3.0 | 4.0 | 0.00 | 0.00 | 0.00 | 36 | 1025.4 |
| 20260905124359 | 75 | 230 | 7.0 | 8.0 | 0.00 | 0.00 | 0.00 | 36 | 1025.3 |
| 20260905123914 | 74 | 247 | 3.0 | 4.0 | 0.00 | 0.00 | 0.00 | 37 | 1025.2 |
| 20260905123428 | 75 | 281 | 3.0 | 4.0 | 0.00 | 0.00 | 0.00 | 37 | 1025.1 |
| 20260905122903 | 75 | 265 | 2.0 | 3.0 | 0.00 | 0.00 | 0.00 | 39 | 1025.0 |
| 20260905122402 | 74 | 254 | 4.0 | 6.0 | 0.00 | 0.00 | 0.00 | 38 | 1025.2 |
| 20260905121902 | 73 | 262 | 1.0 | 2.0 | 0.00 | 0.00 | 0.00 | 40 | 1025.0 |
| 20260905121417 | 73 | 270 | 3.0 | 4.0 | 0.00 | 0.00 | 0.00 | 40 | 1025.0 |
| 20260905120922 | 73 | 238 | 2.0 | 3.0 | 0.00 | 0.00 | 0.00 | 40 | 1025.1 |
| 20260905120411 | 74 | 222 | 2.0 | 2.0 | 0.00 | 0.00 | 0.00 | 38 | 1025.1 |
| 20260905115911 | 74 | 217 | 4.0 | 7.0 | 0.00 | 0.00 | 0.00 | 38 | 1024.9 |
| 20260905115425 | 74 | 215 | 5.0 | 7.0 | 0.00 | 0.00 | 0.00 | 36 | 1025.1 |
| 20260905114900 | 75 | 266 | 3.0 | 5.0 | 0.00 | 0.00 | 0.00 | 37 | 1025.1 |
| 20260905114415 | 75 | 257 | 2.0 | 2.0 | 0.00 | 0.00 | 0.00 | 40 | 1024.9 |
| 20260905113919 | 73 | 269 | 4.0 | 5.0 | 0.00 | 0.00 | 0.00 | 39 | 1025.0 |
| 20260905113409 | 73 | 291 | 3.0 | 5.0 | 0.00 | 0.00 | 0.00 | 39 | 1025.0 |
| 20260905112909 | 72 | 293 | 2.0 | 4.0 | 0.00 | 0.00 | 0.00 | 39 | 1025.0 |
| 20260905112408 | 74 | 279 | 6.0 | 8.0 | 0.00 | 0.00 | 0.00 | 38 | 1025.1 |
| 20260905111908 | 73 | 280 | 2.0 | 3.0 | 0.00 | 0.00 | 0.00 | 40 | 1025.1 |
| 20260905111407 | 72 | 303 | 3.0 | 4.0 | 0.00 | 0.00 | 0.00 | 40 | 1025.3 |
| 20260905110907 | 72 | 323 | 4.0 | 5.0 | 0.00 | 0.00 | 0.00 | 41 | 1025.2 |
| 20260905110406 | 72 | 353 | 6.0 | 9.0 | 0.00 | 0.00 | 0.00 | 42 | 1025.0 |
| 20260905105921 | 72 | 269 | 4.0 | 7.0 | 0.00 | 0.00 | 0.00 | 42 | 1025.1 |
| 20260905105411 | 72 | 242 | 4.0 | 7.0 | 0.00 | 0.00 | 0.00 | 43 | 1025.2 |
| 20260905104910 | 72 | 296 | 2.0 | 4.0 | 0.00 | 0.00 | 0.00 | 42 | 1025.0 |
| 20260905104400 | 72 | 293 | 1.0 | 2.0 | 0.00 | 0.00 | 0.00 | 44 | 1025.0 |
| 20260905103859 | 70 | 294 | 3.0 | 4.0 | 0.00 | 0.00 | 0.00 | 43 | 1024.9 |
| 20260905103429 | 73 | 288 | 3.0 | 5.0 | 0.00 | 0.00 | 0.00 | 41 | 1025.0 |
| 20260905102904 | 73 | 295 | 2.0 | 4.0 | 0.00 | 0.00 | 0.00 | 41 | 1024.9 |
| 20260905102403 | 72 | 296 | 2.0 | 4.0 | 0.00 | 0.00 | 0.00 | 45 | 1024.9 |
| 20260905101903 | 71 | 278 | 3.0 | 5.0 | 0.00 | 0.00 | 0.00 | 45 | 1024.8 |
| 20260905101418 | 71 | 264 | 4.0 | 6.0 | 0.00 | 0.00 | 0.00 | 44 | 1024.7 |
| 20260905100902 | 72 | 262 | 4.0 | 5.0 | 0.00 | 0.00 | 0.00 | 46 | 1024.7 |
| 20260905100402 | 71 | 244 | 5.0 | 8.0 | 0.00 | 0.00 | 0.00 | 45 | 1024.7 |
| 20260905095901 | 71 | 270 | 3.0 | 5.0 | 0.00 | 0.00 | 0.00 | 47 | 1024.7 |
| 20260905095416 | 71 | 283 | 4.0 | 6.0 | 0.00 | 0.00 | 0.00 | 50 | 1024.8 |
| 20260905094901 | 70 | 286 | 3.0 | 4.0 | 0.00 | 0.00 | 0.00 | 50 | 1024.6 |
| 20260905094400 | 70 | 269 | 4.0 | 8.0 | 0.00 | 0.00 | 0.00 | 51 | 1024.6 |
| 20260905093900 | 69 | 275 | 4.0 | 5.0 | 0.00 | 0.00 | 0.00 | 51 | 1024.7 |
| 20260905093415 | 69 | 272 | 5.0 | 7.0 | 0.00 | 0.00 | 0.00 | 51 | 1024.7 |
| 20260905092914 | 69 | 240 | 5.0 | 8.0 | 0.00 | 0.00 | 0.00 | 52 | 1024.5 |
| 20260905092404 | 69 | 253 | 2.0 | 4.0 | 0.00 | 0.00 | 0.00 | 52 | 1024.4 |
| 20260905091903 | 69 | 256 | 4.0 | 7.0 | 0.00 | 0.00 | 0.00 | 53 | 1024.5 |
| 20260905091416 | 68 | 268 | 4.0 | 8.0 | 0.00 | 0.00 | 0.00 | 53 | 1024.6 |
| 20260905090900 | 68 | 246 | 3.0 | 4.0 | 0.00 | 0.00 | 0.00 | 54 | 1024.6 |
| 20260905090400 | 67 | 260 | 4.0 | 6.0 | 0.00 | 0.00 | 0.00 | 55 | 1024.5 |
| 20260905085859 | 67 | 250 | 4.0 | 7.0 | 0.00 | 0.00 | 0.00 | 55 | 1024.4 |
| 20260905085414 | 67 | 232 | 4.0 | 6.0 | 0.00 | 0.00 | 0.00 | 55 | 1024.4 |
| 20260905084914 | 67 | 250 | 2.0 | 4.0 | 0.00 | 0.00 | 0.00 | 57 | 1024.4 |
| 20260905084413 | 66 | 271 | 3.0 | 8.0 | 0.00 | 0.00 | 0.00 | 58 | 1024.3 |
| 20260905083913 | 66 | 265 | 4.0 | 8.0 | 0.00 | 0.00 | 0.00 | 58 | 1024.4 |
| 20260905083412 | 66 | 240 | 4.0 | 6.0 | 0.00 | 0.00 | 0.00 | 59 | 1024.3 |
| 20260905082912 | 66 | 251 | 4.0 | 6.0 | 0.00 | 0.00 | 0.00 | 59 | 1024.3 |
| 20260905082410 | 67 | 279 | 2.0 | 4.0 | 0.00 | 0.00 | 0.00 | 60 | 1024.4 |
| 20260905081909 | 66 | 261 | 2.0 | 4.0 | 0.00 | 0.00 | 0.00 | 60 | 1024.3 |
| 20260905081409 | 65 | 252 | 4.0 | 5.0 | 0.00 | 0.00 | 0.00 | 61 | 1024.2 |
| 20260905080908 | 65 | 288 | 3.0 | 4.0 | 0.00 | 0.00 | 0.00 | 61 | 1024.3 |
| 20260905080408 | 65 | 255 | 3.0 | 4.0 | 0.00 | 0.00 | 0.00 | 61 | 1024.3 |
| 20260905075908 | 65 | 254 | 2.0 | 3.0 | 0.00 | 0.00 | 0.00 | 62 | 1024.1 |
| 20260905075407 | 65 | 239 | 2.0 | 4.0 | 0.00 | 0.00 | 0.00 | 63 | 1024.2 |
| 20260905074907 | 64 | 228 | 2.0 | 2.0 | 0.00 | 0.00 | 0.00 | 64 | 1024.1 |
| 20260905074407 | 64 | 229 | 2.0 | 4.0 | 0.00 | 0.00 | 0.00 | 64 | 1024.1 |
| 20260905073921 | 63 | 248 | 3.0 | 4.0 | 0.00 | 0.00 | 0.00 | 69 | 1024.0 |
| 20260905073356 | 64 | 239 | 4.0 | 6.0 | 0.00 | 0.00 | 0.00 | 65 | 1024.0 |
| 20260905072856 | 64 | 257 | 2.0 | 2.0 | 0.00 | 0.00 | 0.00 | 68 | 1024.1 |
| 20260905072356 | 63 | 265 | 1.0 | 2.0 | 0.00 | 0.00 | 0.00 | 72 | 1024.3 |
| 20260905071856 | 62 | 261 | 1.0 | 2.0 | 0.00 | 0.00 | 0.00 | 74 | 1024.0 |
| 20260905071355 | 61 | 260 | 2.0 | 3.0 | 0.00 | 0.00 | 0.00 | 78 | 1023.9 |
| 20260905070855 | 60 | 253 | 2.0 | 2.0 | 0.00 | 0.00 | 0.00 | 81 | 1023.8 |
| 20260905070354 | 58 | 228 | 1.0 | 2.0 | 0.00 | 0.01 | 0.00 | 87 | 1023.9 |
| 20260905065854 | 57 | 235 | 3.0 | 4.0 | 0.00 | 0.01 | 0.00 | 94 | 1023.7 |
| 20260905065354 | 55 | 259 | 1.0 | 2.0 | 0.00 | 0.02 | 0.00 | 95 | 1023.8 |
| 20260905064908 | 54 | 272 | 1.0 | 2.0 | 0.00 | 0.02 | 0.00 | 98 | 1023.8 |
| 20260905064408 | 53 | 272 | 1.0 | 2.0 | 0.00 | 0.02 | 0.00 | 98 | 1023.8 |
| 20260905063907 | 53 | 286 | 1.0 | 2.0 | 0.00 | 0.02 | 0.00 | 98 | 1023.7 |
| 20260905063407 | 53 | 301 | 2.0 | 2.0 | 0.00 | 0.02 | 0.00 | 98 | 1023.8 |
| 20260905062906 | 52 | 285 | 1.0 | 2.0 | 0.00 | 0.02 | 0.00 | 98 | 1023.5 |
| 20260905062356 | 52 | 270 | 2.0 | 2.0 | 0.00 | 0.02 | 0.00 | 97 | 1023.5 |
| 20260905061855 | 51 | 270 | 0.0 | 0.0 | 0.00 | 0.02 | 0.00 | 97 | 1023.5 |
| 20260905061355 | 51 | 270 | 0.0 | 0.0 | 0.00 | 0.02 | 0.00 | 97 | 1023.5 |
| 20260905060854 | 51 | 270 | 0.0 | 0.0 | 0.00 | 0.02 | 0.00 | 97 | 1023.4 |
| 20260905060354 | 51 | 270 | 0.0 | 1.0 | 0.00 | 0.02 | 0.00 | 97 | 1023.3 |
| 20260905055909 | 51 | 270 | 0.0 | 1.0 | 0.00 | 0.02 | 0.00 | 96 | 1023.1 |
| 20260905055408 | 51 | 270 | 2.0 | 2.0 | 0.00 | 0.02 | 0.00 | 96 | 1023.1 |
| 20260905054858 | 51 | 180 | 0.0 | 1.0 | 0.00 | 0.02 | 0.00 | 96 | 1023.0 |
| 20260905054358 | 51 | 315 | 0.0 | 0.0 | 0.00 | 0.02 | 0.00 | 96 | 1023.1 |
| 20260905053857 | 51 | 315 | 0.0 | 1.0 | 0.00 | 0.02 | 0.00 | 96 | 1023.0 |
| 20260905053412 | 50 | 315 | 0.0 | 0.0 | 0.00 | 0.02 | 0.00 | 95 | 1022.9 |
| 20260905052916 | 50 | 315 | 0.0 | 0.0 | 0.00 | 0.02 | 0.00 | 95 | 1022.9 |
| 20260905052406 | 51 | 315 | 0.0 | 0.0 | 0.00 | 0.02 | 0.00 | 95 | 1022.6 |
| 20260905051905 | 51 | 315 | 1.0 | 1.0 | 0.00 | 0.02 | 0.00 | 95 | 1022.8 |
| 20260905051404 | 51 | 180 | 0.0 | 0.0 | 0.00 | 0.02 | 0.00 | 94 | 1022.5 |
| 20260905050904 | 51 | 180 | 0.0 | 1.0 | 0.00 | 0.02 | 0.00 | 94 | 1022.5 |
| 20260905050409 | 50 | 180 | 0.0 | 0.0 | 0.00 | 0.02 | 0.00 | 94 | 1022.5 |
| 20260905045908 | 50 | 180 | 0.0 | 0.0 | 0.00 | 0.02 | 0.00 | 93 | 1022.4 |
| 20260905045407 | 50 | 180 | 0.0 | 0.0 | 0.00 | 0.02 | 0.00 | 93 | 1022.6 |
| 20260905044907 | 51 | 180 | 0.0 | 0.0 | 0.00 | 0.02 | 0.00 | 93 | 1022.4 |
| 20260905044407 | 51 | 180 | 0.0 | 0.0 | 0.00 | 0.02 | 0.00 | 93 | 1022.5 |
| 20260905043906 | 51 | 180 | 0.0 | 0.0 | 0.00 | 0.02 | 0.00 | 93 | 1022.3 |
| 20260905043406 | 51 | 180 | 0.0 | 0.0 | 0.00 | 0.02 | 0.00 | 93 | 1022.2 |
| 20260905042905 | 51 | 180 | 0.0 | 0.0 | 0.00 | 0.02 | 0.00 | 93 | 1022.3 |
| 20260905042405 | 51 | 225 | 0.0 | 0.0 | 0.00 | 0.02 | 0.00 | 93 | 1022.2 |
| 20260905041905 | 52 | 225 | 0.0 | 0.0 | 0.00 | 0.02 | 0.00 | 93 | 1022.3 |
| 20260905041418 | 52 | 225 | 0.0 | 0.0 | 0.00 | 0.02 | 0.00 | 93 | 1022.0 |
| 20260905040908 | 52 | 235 | 0.0 | 0.0 | 0.00 | 0.02 | 0.00 | 93 | 1022.1 |
| 20260905040407 | 53 | 235 | 0.0 | 1.0 | 0.00 | 0.02 | 0.00 | 93 | 1021.8 |
| 20260905035907 | 53 | 221 | 2.0 | 2.0 | 0.00 | 0.02 | 0.00 | 93 | 1022.0 |
| 20260905035357 | 53 | 248 | 0.0 | 1.0 | 0.00 | 0.02 | 0.00 | 93 | 1021.9 |
| 20260905034856 | 53 | 248 | 0.0 | 0.0 | 0.00 | 0.02 | 0.00 | 93 | 1022.1 |
| 20260905034355 | 53 | 278 | 1.0 | 2.0 | 0.00 | 0.02 | 0.00 | 93 | 1022.0 |
| 20260905033855 | 53 | 256 | 0.0 | 1.0 | 0.00 | 0.02 | 0.00 | 93 | 1021.9 |
| 20260905033355 | 53 | 251 | 2.0 | 3.0 | 0.00 | 0.02 | 0.00 | 93 | 1021.8 |
| 20260905032854 | 53 | 282 | 2.0 | 2.0 | 0.00 | 0.02 | 0.00 | 93 | 1021.8 |
| 20260905032409 | 53 | 299 | 0.0 | 1.0 | 0.00 | 0.02 | 0.00 | 93 | 1021.7 |
| 20260905031908 | 53 | 294 | 2.0 | 4.0 | 0.00 | 0.02 | 0.00 | 93 | 1021.7 |
| 20260905031408 | 53 | 227 | 1.0 | 2.0 | 0.00 | 0.02 | 0.00 | 93 | 1021.8 |
| 20260905030907 | 53 | 213 | 2.0 | 2.0 | 0.00 | 0.02 | 0.00 | 93 | 1021.6 |
| 20260905030407 | 53 | 233 | 1.0 | 2.0 | 0.00 | 0.02 | 0.00 | 93 | 1021.6 |
| 20260905025907 | 54 | 252 | 2.0 | 2.0 | 0.00 | 0.02 | 0.00 | 93 | 1021.6 |
| 20260905025406 | 54 | 259 | 1.0 | 2.0 | 0.00 | 0.02 | 0.00 | 92 | 1021.6 |
| 20260905024906 | 54 | 263 | 2.0 | 2.0 | 0.00 | 0.02 | 0.00 | 92 | 1021.5 |
| 20260905024406 | 54 | 257 | 2.0 | 3.0 | 0.00 | 0.02 | 0.00 | 92 | 1021.4 |
| 20260905023906 | 54 | 255 | 3.0 | 4.0 | 0.00 | 0.02 | 0.00 | 92 | 1021.4 |
| 20260905023405 | 54 | 237 | 2.0 | 3.0 | 0.00 | 0.02 | 0.00 | 92 | 1021.1 |
| 20260905022905 | 54 | 245 | 1.0 | 2.0 | 0.00 | 0.02 | 0.00 | 92 | 1021.1 |
| 20260905022404 | 54 | 235 | 1.0 | 2.0 | 0.00 | 0.02 | 0.00 | 92 | 1021.5 |
| 20260905021904 | 54 | 244 | 2.0 | 2.0 | 0.00 | 0.02 | 0.00 | 91 | 1021.2 |
| 20260905021404 | 54 | 258 | 1.0 | 2.0 | 0.00 | 0.02 | 0.00 | 91 | 1021.2 |
| 20260905020903 | 54 | 238 | 0.0 | 1.0 | 0.00 | 0.02 | 0.00 | 91 | 1021.2 |
| 20260905020402 | 54 | 237 | 1.0 | 2.0 | 0.00 | 0.02 | 0.00 | 91 | 1021.2 |
| 20260905015902 | 54 | 238 | 1.0 | 2.0 | 0.00 | 0.02 | 0.00 | 91 | 1021.1 |
| 20260905015402 | 54 | 244 | 2.0 | 3.0 | 0.00 | 0.02 | 0.00 | 90 | 1021.0 |
| 20260905014901 | 54 | 229 | 2.0 | 2.0 | 0.00 | 0.02 | 0.00 | 87 | 1021.0 |
| 20260905014401 | 54 | 244 | 1.0 | 2.0 | 0.00 | 0.02 | 0.00 | 87 | 1021.1 |
| 20260905013901 | 54 | 240 | 1.0 | 2.0 | 0.00 | 0.02 | 0.00 | 86 | 1021.2 |
| 20260905013401 | 54 | 247 | 2.0 | 3.0 | 0.00 | 0.02 | 0.00 | 86 | 1021.1 |
| 20260905012900 | 55 | 286 | 1.0 | 2.0 | 0.00 | 0.02 | 0.00 | 86 | 1021.2 |
| 20260905012400 | 55 | 276 | 1.0 | 2.0 | 0.00 | 0.02 | 0.00 | 86 | 1021.0 |
| 20260905011900 | 55 | 286 | 2.0 | 2.0 | 0.00 | 0.02 | 0.00 | 86 | 1021.0 |
| 20260905011359 | 55 | 274 | 2.0 | 2.0 | 0.00 | 0.02 | 0.00 | 86 | 1021.0 |
| 20260905010859 | 55 | 303 | 1.0 | 2.0 | 0.00 | 0.02 | 0.00 | 86 | 1020.9 |
| 20260905010359 | 55 | 306 | 2.0 | 3.0 | 0.00 | 0.02 | 0.00 | 86 | 1020.7 |
| 20260905005858 | 55 | 289 | 1.0 | 2.0 | 0.00 | 0.02 | 0.00 | 86 | 1020.9 |
| 20260905005358 | 55 | 284 | 4.0 | 5.0 | 0.00 | 0.02 | 0.00 | 86 | 1020.9 |
| 20260905004912 | 54 | 302 | 2.0 | 3.0 | 0.00 | 0.02 | 0.00 | 85 | 1020.9 |
| 20260905004402 | 54 | 286 | 2.0 | 3.0 | 0.00 | 0.02 | 0.00 | 85 | 1020.8 |
| 20260905003902 | 54 | 246 | 1.0 | 2.0 | 0.00 | 0.02 | 0.00 | 84 | 1020.8 |
| 20260905003401 | 54 | 252 | 1.0 | 2.0 | 0.00 | 0.02 | 0.00 | 84 | 1020.8 |
| 20260905002901 | 55 | 264 | 1.0 | 2.0 | 0.00 | 0.02 | 0.00 | 84 | 1020.8 |
| 20260905002415 | 55 | 269 | 0.0 | 1.0 | 0.00 | 0.02 | 0.00 | 84 | 1021.0 |
| 20260905001905 | 55 | 270 | 0.0 | 1.0 | 0.00 | 0.02 | 0.00 | 83 | 1020.7 |
| 20260905001404 | 55 | 267 | 1.0 | 2.0 | 0.00 | 0.02 | 0.00 | 83 | 1020.8 |
| 20260905000909 | 55 | 274 | 2.0 | 2.0 | 0.00 | 0.02 | 0.00 | 83 | 1020.7 |
| 20260905000359 | 55 | 269 | 2.0 | 3.0 | 0.00 | 0.02 | 0.00 | 83 | 1020.6 |
| 20260904235858 | 55 | 246 | 2.0 | 2.0 | 0.00 | 0.02 | 0.00 | 82 | 1020.7 |
| 20260904235413 | 55 | 254 | 2.0 | 2.0 | 0.00 | 0.02 | 0.00 | 82 | 1020.6 |
| 20260904234903 | 56 | 242 | 1.0 | 2.0 | 0.00 | 0.02 | 0.00 | 82 | 1020.4 |
| 20260904234402 | 56 | 244 | 2.0 | 2.0 | 0.00 | 0.02 | 0.00 | 82 | 1020.4 |
| 20260904233902 | 56 | 237 | 2.0 | 3.0 | 0.00 | 0.02 | 0.00 | 82 | 1020.2 |
| 20260904233401 | 56 | 267 | 2.0 | 3.0 | 0.00 | 0.02 | 0.00 | 82 | 1020.5 |
| 20260904232901 | 56 | 242 | 2.0 | 3.0 | 0.00 | 0.02 | 0.00 | 83 | 1020.3 |
| 20260904232401 | 56 | 247 | 1.0 | 2.0 | 0.00 | 0.02 | 0.00 | 83 | 1020.4 |
| 20260904231901 | 56 | 253 | 2.0 | 2.0 | 0.00 | 0.02 | 0.00 | 83 | 1020.5 |
| 20260904231400 | 56 | 257 | 2.0 | 2.0 | 0.00 | 0.02 | 0.00 | 83 | 1020.3 |
| 20260904230900 | 56 | 240 | 2.0 | 3.0 | 0.00 | 0.02 | 0.00 | 82 | 1020.3 |
| 20260904230355 | 56 | 233 | 2.0 | 2.0 | 0.00 | 0.02 | 0.00 | 82 | 1020.4 |
| 20260904225909 | 56 | 236 | 2.0 | 3.0 | 0.00 | 0.02 | 0.00 | 82 | 1020.5 |
| 20260904225359 | 56 | 244 | 2.0 | 2.0 | 0.00 | 0.02 | 0.00 | 82 | 1020.4 |
| 20260904224859 | 56 | 235 | 4.0 | 4.0 | 0.00 | 0.02 | 0.00 | 81 | 1020.4 |
| 20260904224358 | 56 | 258 | 2.0 | 2.0 | 0.00 | 0.02 | 0.00 | 81 | 1020.3 |
| 20260904223857 | 56 | 293 | 1.0 | 2.0 | 0.00 | 0.02 | 0.00 | 80 | 1020.4 |
| 20260904223357 | 56 | 290 | 1.0 | 2.0 | 0.00 | 0.02 | 0.00 | 80 | 1020.2 |
| 20260904222857 | 56 | 285 | 1.0 | 2.0 | 0.00 | 0.02 | 0.00 | 80 | 1020.2 |
| 20260904222411 | 56 | 264 | 0.0 | 1.0 | 0.00 | 0.02 | 0.00 | 80 | 1020.0 |
| 20260904221908 | 57 | 265 | 1.0 | 2.0 | 0.00 | 0.02 | 0.00 | 80 | 1019.9 |
| 20260904221408 | 57 | 257 | 1.0 | 2.0 | 0.00 | 0.02 | 0.00 | 80 | 1020.0 |
| 20260904220858 | 57 | 252 | 2.0 | 2.0 | 0.00 | 0.02 | 0.00 | 80 | 1020.1 |
| 20260904220357 | 57 | 232 | 2.0 | 3.0 | 0.00 | 0.02 | 0.00 | 80 | 1020.0 |
| 20260904215912 | 57 | 238 | 2.0 | 3.0 | 0.00 | 0.02 | 0.00 | 80 | 1020.2 |
| 20260904215402 | 57 | 241 | 2.0 | 2.0 | 0.00 | 0.02 | 0.00 | 79 | 1020.0 |
| 20260904214901 | 58 | 229 | 2.0 | 4.0 | 0.00 | 0.02 | 0.00 | 78 | 1020.0 |
| 20260904214416 | 58 | 231 | 2.0 | 2.0 | 0.00 | 0.02 | 0.00 | 77 | 1019.9 |
| 20260904213906 | 58 | 244 | 1.0 | 2.0 | 0.00 | 0.02 | 0.00 | 76 | 1019.8 |
| 20260904213405 | 58 | 245 | 1.0 | 2.0 | 0.00 | 0.02 | 0.00 | 76 | 1019.9 |
| 20260904212905 | 58 | 239 | 2.0 | 2.0 | 0.00 | 0.02 | 0.00 | 75 | 1019.8 |
| 20260904212405 | 59 | 243 | 2.0 | 3.0 | 0.00 | 0.02 | 0.00 | 75 | 1019.9 |
| 20260904211904 | 59 | 253 | 1.0 | 2.0 | 0.00 | 0.02 | 0.00 | 75 | 1020.0 |
| 20260904211404 | 59 | 260 | 2.0 | 3.0 | 0.00 | 0.02 | 0.00 | 74 | 1019.8 |
| 20260904210903 | 59 | 246 | 2.0 | 2.0 | 0.00 | 0.02 | 0.00 | 74 | 1019.9 |
| 20260904210402 | 59 | 258 | 2.0 | 2.0 | 0.00 | 0.02 | 0.00 | 74 | 1019.7 |
| 20260904205902 | 59 | 258 | 2.0 | 4.0 | 0.00 | 0.02 | 0.00 | 74 | 1019.7 |
| 20260904205402 | 59 | 274 | 2.0 | 2.0 | 0.00 | 0.02 | 0.00 | 74 | 1019.7 |
| 20260904204902 | 59 | 293 | 2.0 | 2.0 | 0.00 | 0.02 | 0.00 | 74 | 1019.8 |
| 20260904204402 | 59 | 303 | 2.0 | 3.0 | 0.00 | 0.02 | 0.00 | 74 | 1019.7 |
| 20260904203901 | 59 | 287 | 1.0 | 2.0 | 0.00 | 0.02 | 0.00 | 74 | 1019.6 |
| 20260904203401 | 59 | 290 | 2.0 | 2.0 | 0.00 | 0.02 | 0.00 | 74 | 1019.7 |
| 20260904202900 | 59 | 260 | 1.0 | 2.0 | 0.00 | 0.02 | 0.00 | 74 | 1019.6 |
| 20260904202400 | 59 | 265 | 1.0 | 1.0 | 0.00 | 0.02 | 0.00 | 73 | 1019.5 |
| 20260904201900 | 59 | 282 | 1.0 | 2.0 | 0.00 | 0.02 | 0.00 | 73 | 1019.7 |
| 20260904201414 | 60 | 293 | 1.0 | 1.0 | 0.00 | 0.02 | 0.00 | 72 | 1019.8 |
| 20260904200904 | 60 | 311 | 2.0 | 3.0 | 0.00 | 0.02 | 0.00 | 72 | 1019.7 |
| 20260904200403 | 60 | 267 | 1.0 | 2.0 | 0.00 | 0.02 | 0.00 | 72 | 1019.8 |
| 20260904195803 | 61 | 243 | 2.0 | 2.0 | 0.00 | 0.02 | 0.00 | 71 | 1019.5 |
| 20260904195305 | 61 | 226 | 1.0 | 2.0 | 0.00 | 0.02 | 0.00 | 71 | 1019.5 |
| 20260904194801 | 61 | 241 | 2.0 | 3.0 | 0.00 | 0.02 | 0.00 | 71 | 1019.4 |
| 20260904194300 | 61 | 262 | 2.0 | 3.0 | 0.00 | 0.02 | 0.00 | 71 | 1019.3 |
| 20260904193800 | 61 | 221 | 2.0 | 4.0 | 0.00 | 0.02 | 0.00 | 71 | 1019.3 |
| 20260904193315 | 62 | 278 | 2.0 | 4.0 | 0.00 | 0.02 | 0.00 | 70 | 1019.2 |
| 20260904192804 | 62 | 307 | 2.0 | 3.0 | 0.00 | 0.02 | 0.00 | 70 | 1019.0 |
| 20260904192306 | 62 | 287 | 2.0 | 3.0 | 0.00 | 0.02 | 0.00 | 70 | 1019.0 |
| 20260904191803 | 62 | 281 | 2.0 | 3.0 | 0.00 | 0.02 | 0.00 | 70 | 1019.0 |
| 20260904191303 | 62 | 290 | 2.0 | 4.0 | 0.00 | 0.02 | 0.00 | 70 | 1019.0 |